Retour au catalogue

SL-8 DEB

ActifPO
NORAD 28706·DEBRIS·🇷🇺 Russia

Lancé Feb 27, 1990 depuis Plesetsk Cosmodrome

Loading…

Prochains Passages (prochaines 24 heures)

TLE

FraisSource: Space-Track

Époque: Sep 14, 2026, 15:43 UTC

1 28706U 90017C   26257.65508138  .00000880  00000-0  70862-3 0  9990
2 28706  83.0875  37.6455 0080237 132.1467 228.6551 13.87897553 70439

Suivez SL-8 DEB en temps réel avec AllMySat

Download on the App Store